DW8501 Madrid ES current weather conditions

sailwx.info

Wind from 205 at 1 knots gusting 3

Air temperature 10.6° C
Dewpoint 10.4° C

Last reported at 2017-Apr-29 23:05 UTC.
Time now 2017-Apr-29 23:27 UTC

Location: N 40°27' W 003°35'.
View on Google Maps.

See reports from other nearby stations

  
Tides and Currents Weather Stations Pressure Air Temp Water Temp Dewpoint Dewpoint Depression Visibility Wind Speed Wind Dir Waves Ship Positions
date/time (UTC)wind fromknots sea level pressurealtimeterstation pressurevisibilityair tempwater tempwave heightnotes
2017-Apr-29 23:10 10.6
2017-Apr-29 23:05 205 1 gusting 3 10.6
2017-Apr-29 23:00 10.6
2017-Apr-29 22:55 174 3 gusting 3 10.6
2017-Apr-29 22:50 10.6
2017-Apr-29 22:45 10.6
2017-Apr-29 22:40 356 0 gusting 3 10.6
2017-Apr-29 22:35 340 1 gusting 4 10.6
2017-Apr-29 22:30 340 2 gusting 4 10.6
2017-Apr-29 22:25 10.6
2017-Apr-29 22:20 10.6
2017-Apr-29 22:15 220 1 gusting 2 10.6
2017-Apr-29 22:10 194 0 gusting 1 10.6
2017-Apr-29 22:05 10.6
2017-Apr-29 22:00 10.6
2017-Apr-29 21:55 11.1
2017-Apr-29 21:50 11.1
2017-Apr-29 21:45 11.1
2017-Apr-29 21:40 11.1
2017-Apr-29 21:35 092 1 gusting 2 11.1
2017-Apr-29 21:30 165 1 gusting 1 11.1
2017-Apr-29 21:25 11.1
2017-Apr-29 21:20 11.1
2017-Apr-29 21:15 11.1
2017-Apr-29 21:10 11.1
2017-Apr-29 21:05 225 0 gusting 1 11.1
2017-Apr-29 21:00 11.1
2017-Apr-29 20:55 219 1 gusting 2 11.1
2017-Apr-29 20:50 043 1 gusting 2 11.1
2017-Apr-29 20:45 11.1
2017-Apr-29 20:40 056 1 gusting 4 11.1
2017-Apr-29 20:35 053 3 gusting 3 11.1
2017-Apr-29 20:30 10.6
2017-Apr-29 20:25 126 1 gusting 1 10.6
2017-Apr-29 20:20 10.6
2017-Apr-29 20:15 10.6
2017-Apr-29 20:10 10.6
2017-Apr-29 20:05 158 1 gusting 2 11.1
2017-Apr-29 20:00 172 1 gusting 2 11.1
2017-Apr-29 19:55 149 0 gusting 1 11.1
2017-Apr-29 19:50 11.1
2017-Apr-29 19:45 11.1
2017-Apr-29 19:40 11.1
2017-Apr-29 19:35 11.7
2017-Apr-29 19:30 045 1 gusting 2 11.7
2017-Apr-29 19:25 11.7
2017-Apr-29 19:20 11.7
2017-Apr-29 19:15 093 1 gusting 4 11.7
2017-Apr-29 19:10 093 2 gusting 5 11.7
2017-Apr-29 19:05 090 3 gusting 5 11.7
2017-Apr-29 19:00 084 1 gusting 3 12.2
2017-Apr-29 18:55 079 2 gusting 5 12.2
2017-Apr-29 18:50 074 1 gusting 7 11.7
2017-Apr-29 18:45 062 0 gusting 7 11.7
2017-Apr-29 18:40 057 6 gusting 7 12.2
2017-Apr-29 18:35 060 2 gusting 5 12.2
2017-Apr-29 18:30 049 3 gusting 5 12.2
2017-Apr-29 18:25 046 3 gusting 6 12.2
2017-Apr-29 18:20 044 4 gusting 6 12.2
2017-Apr-29 18:15 029 6 gusting 6 12.2
2017-Apr-29 18:10 344 1 gusting 3 12.8
2017-Apr-29 18:05 326 1 gusting 4 12.8
2017-Apr-29 18:00 12.2
2017-Apr-29 17:55 008 2 gusting 4 12.2
2017-Apr-29 17:50 337 2 gusting 5 12.8
2017-Apr-29 17:45 344 1 gusting 6 12.2
2017-Apr-29 17:40 358 2 gusting 10 11.7
2017-Apr-29 17:35 008 3 gusting 10 11.7
2017-Apr-29 17:30 041 3 gusting 6 11.7
2017-Apr-29 17:25 042 5 gusting 6 11.7
2017-Apr-29 17:20 038 3 gusting 5 11.7
2017-Apr-29 17:15 065 1 gusting 3 12.2
2017-Apr-29 17:10 11.7
2017-Apr-29 17:05 062 2 gusting 4 11.7
2017-Apr-29 17:00 075 1 gusting 3 12.2
2017-Apr-29 16:55 064 1 gusting 5 11.7
2017-Apr-29 16:50 065 2 gusting 5 11.7
2017-Apr-29 16:45 064 3 gusting 6 11.7
2017-Apr-29 16:40 049 3 gusting 6 11.7
2017-Apr-29 16:35 048 4 gusting 6 11.7
2017-Apr-29 16:30 048 3 gusting 6 11.7
2017-Apr-29 16:25 050 3 gusting 6 11.7
2017-Apr-29 16:20 053 2 gusting 6 11.7
2017-Apr-29 16:15 068 3 gusting 4 12.2
2017-Apr-29 16:10 086 0 gusting 3 12.2
2017-Apr-29 16:05 074 0 gusting 2 11.7
2017-Apr-29 16:00 084 0 gusting 3 11.7
2017-Apr-29 15:55 058 1 gusting 3 11.7
2017-Apr-29 15:50 049 2 gusting 3 11.7
2017-Apr-29 15:45 058 1 gusting 4 11.7
2017-Apr-29 15:40 070 1 gusting 4 11.7
2017-Apr-29 15:35 079 1 gusting 3 11.7
2017-Apr-29 15:30 077 1 gusting 3 11.7
2017-Apr-29 15:25 087 0 gusting 2 11.7
2017-Apr-29 15:20 11.7
2017-Apr-29 15:15 11.7
2017-Apr-29 15:10 092 1 gusting 3 11.7
2017-Apr-29 15:05 096 1 gusting 3 11.7
2017-Apr-29 15:00 097 1 gusting 5 11.7
2017-Apr-29 14:55 108 2 gusting 5 11.7
2017-Apr-29 14:50 122 0 gusting 3 11.7
2017-Apr-29 14:45 109 1 gusting 4 11.7
2017-Apr-29 14:40 100 2 gusting 4 11.7
2017-Apr-29 14:35 104 2 gusting 3 11.7
2017-Apr-29 14:30 106 1 gusting 3 11.7
2017-Apr-29 14:25 094 0 gusting 3 11.7
2017-Apr-29 14:20 11.7
2017-Apr-29 14:15 115 1 gusting 2 11.7
2017-Apr-29 14:10 092 1 gusting 3 11.7
2017-Apr-29 14:05 11.7
2017-Apr-29 14:00 047 2 gusting 4 11.1
2017-Apr-29 13:55 077 1 gusting 3 11.7
2017-Apr-29 13:50 081 1 gusting 3 11.1
2017-Apr-29 13:45 080 1 gusting 3 11.1
2017-Apr-29 13:40 094 2 gusting 3 11.1
2017-Apr-29 13:35 096 1 gusting 3 11.1
2017-Apr-29 13:30 104 1 gusting 3 11.1
2017-Apr-29 13:25 108 0 gusting 3 11.1
2017-Apr-29 13:20 107 1 gusting 3 11.1
2017-Apr-29 13:15 095 0 gusting 2 11.1
2017-Apr-29 13:10 083 0 gusting 3 11.1
2017-Apr-29 13:05 094 1 gusting 3 11.1
2017-Apr-29 13:00 107 0 gusting 3 11.1
2017-Apr-29 12:55 108 2 gusting 3 11.7
2017-Apr-29 12:50 115 0 gusting 2 11.7
2017-Apr-29 12:45 11.7
2017-Apr-29 12:40 11.7
2017-Apr-29 12:35 11.7
2017-Apr-29 12:30 11.1
2017-Apr-29 12:25 11.7
2017-Apr-29 12:20 11.1
2017-Apr-29 12:15 149 1 gusting 3 11.1
2017-Apr-29 12:10 173 0 gusting 3 11.7
2017-Apr-29 12:05 11.1
2017-Apr-29 12:00 11.1
2017-Apr-29 11:55 135 0 gusting 2 11.1
2017-Apr-29 11:50 132 1 gusting 2 11.1
2017-Apr-29 11:45 11.1
2017-Apr-29 11:40 148 0 gusting 1 11.1
2017-Apr-29 11:35 10.6
2017-Apr-29 11:30 117 0 gusting 3 10.6
2017-Apr-29 11:25 111 1 gusting 3 10.6
2017-Apr-29 11:20 075 1 gusting 3 10.6
2017-Apr-29 11:15 10.0
2017-Apr-29 11:10 081 1 gusting 3 10.0
2017-Apr-29 11:05 101 1 gusting 6 10.0
2017-Apr-29 11:00 090 0 gusting 6 10.0
2017-Apr-29 10:55 090 3 gusting 5 10.0
2017-Apr-29 10:50 117 1 gusting 3 10.0
2017-Apr-29 10:45 099 1 gusting 4 10.0
2017-Apr-29 10:40 091 1 gusting 4 9.4
2017-Apr-29 10:35 100 2 gusting 4 9.4
2017-Apr-29 10:30 110 2 gusting 4 9.4
2017-Apr-29 10:25 112 2 gusting 4 9.4
2017-Apr-29 10:20 107 2 gusting 4 9.4
2017-Apr-29 10:15 9.4
2017-Apr-29 10:10 066 1 gusting 4 9.4
2017-Apr-29 10:05 065 2 gusting 5 9.4
2017-Apr-29 10:00 097 3 gusting 5 9.4
2017-Apr-29 09:55 124 1 gusting 4 9.4
2017-Apr-29 09:50 127 1 gusting 4 9.4
2017-Apr-29 09:45 124 2 gusting 4 9.4
2017-Apr-29 09:40 127 1 gusting 4 9.4
2017-Apr-29 09:35 143 1 gusting 4 9.4
2017-Apr-29 09:30 146 1 gusting 4 8.9
2017-Apr-29 09:25 117 3 gusting 6 8.9
2017-Apr-29 09:20 108 1 gusting 6 8.9
2017-Apr-29 09:15 108 1 gusting 6 8.3
2017-Apr-29 09:10 100 3 gusting 6 8.3
2017-Apr-29 09:05 094 5 gusting 6 8.3
2017-Apr-29 09:00 090 3 gusting 6 8.3
2017-Apr-29 08:55 098 2 gusting 5 8.9
2017-Apr-29 08:50 093 1 gusting 5 8.3
2017-Apr-29 08:45 082 3 gusting 4 8.3
2017-Apr-29 08:40 103 2 gusting 3 8.3
2017-Apr-29 08:35 134 1 gusting 3 8.3
2017-Apr-29 08:30 143 0 gusting 3 8.9
2017-Apr-29 08:25 8.3
2017-Apr-29 08:20 142 0 gusting 4 8.3
2017-Apr-29 08:15 152 1 gusting 5 8.3
2017-Apr-29 08:10 128 2 gusting 6 8.3
2017-Apr-29 08:05 107 1 gusting 6 8.3
2017-Apr-29 08:00 101 1 gusting 5 8.3
2017-Apr-29 07:55 105 1 gusting 5 8.3
2017-Apr-29 07:50 105 3 gusting 5 8.3
2017-Apr-29 07:45 112 2 gusting 6 8.3
2017-Apr-29 07:40 121 3 gusting 6 8.3
2017-Apr-29 07:35 115 1 gusting 5 8.3
2017-Apr-29 07:30 107 2 gusting 5 8.3
2017-Apr-29 07:25 121 1 gusting 4 8.3
2017-Apr-29 07:20 138 3 gusting 6 8.3
2017-Apr-29 07:15 143 1 gusting 6 8.3
2017-Apr-29 07:10 140 5 gusting 6 8.3
2017-Apr-29 07:05 130 3 gusting 7 8.3
2017-Apr-29 07:00 116 3 gusting 7 8.3
2017-Apr-29 06:55 106 1 gusting 5 8.3
2017-Apr-29 06:50 093 1 gusting 6 8.3
2017-Apr-29 06:45 089 3 gusting 6 7.8
2017-Apr-29 06:40 093 3 gusting 5 7.8
2017-Apr-29 06:35 098 3 gusting 5 7.8
2017-Apr-29 06:30 105 2 gusting 5 7.8
2017-Apr-29 06:25 099 3 gusting 5 7.8
2017-Apr-29 06:20 087 4 gusting 5 7.8
2017-Apr-29 06:15 095 3 gusting 6 8.3
2017-Apr-29 06:10 113 3 gusting 6 7.8
2017-Apr-29 06:05 109 3 gusting 5 8.3
2017-Apr-29 06:00 103 3 gusting 5 8.3
2017-Apr-29 05:55 098 2 gusting 6 8.3
2017-Apr-29 05:50 095 2 gusting 6 8.3
2017-Apr-29 05:45 100 4 gusting 6 8.3
2017-Apr-29 05:40 101 1 gusting 5 8.3
2017-Apr-29 05:35 111 1 gusting 5 8.3
2017-Apr-29 05:30 124 3 gusting 5 8.3
2017-Apr-29 05:25 128 2 gusting 4 8.3
2017-Apr-29 05:20 8.3
2017-Apr-29 05:15 088 3 gusting 5 8.3
2017-Apr-29 05:10 111 3 gusting 5 8.3
2017-Apr-29 05:05 114 3 gusting 5 8.3
2017-Apr-29 05:00 110 1 gusting 5 8.3
2017-Apr-29 04:55 116 2 gusting 5 8.3
2017-Apr-29 04:50 124 2 gusting 6 8.3
2017-Apr-29 04:45 118 3 gusting 6 8.3
2017-Apr-29 04:40 110 3 gusting 5 8.3
2017-Apr-29 04:35 122 3 gusting 6 8.3
2017-Apr-29 04:30 129 2 gusting 6 8.3
2017-Apr-29 04:25 124 1 gusting 6 8.9
2017-Apr-29 04:20 117 1 gusting 3 8.9
2017-Apr-29 04:15 123 1 gusting 3 8.9
2017-Apr-29 04:10 110 1 gusting 3 8.9
2017-Apr-29 04:05 092 3 gusting 3 8.9
2017-Apr-29 04:00 098 3 gusting 3 8.9
2017-Apr-29 03:55 115 1 gusting 3 8.9
2017-Apr-29 03:50 125 1 gusting 3 8.9
2017-Apr-29 03:45 123 1 gusting 3 8.9
2017-Apr-29 03:40 127 0 gusting 3 8.9
2017-Apr-29 03:35 125 0 gusting 3 8.9
2017-Apr-29 03:30 135 1 gusting 3 9.4
2017-Apr-29 03:25 137 1 gusting 3 9.4
2017-Apr-29 03:20 142 1 gusting 3 9.4
2017-Apr-29 03:15 157 0 gusting 5 9.4
2017-Apr-29 03:10 138 1 gusting 5 9.4
2017-Apr-29 03:05 139 1 gusting 4 9.4
2017-Apr-29 03:00 145 1 gusting 5 9.4
2017-Apr-29 02:55 145 3 gusting 5 9.4
2017-Apr-29 02:50 147 3 gusting 5 9.4
2017-Apr-29 02:45 134 0 gusting 3 9.4
2017-Apr-29 02:40 124 1 gusting 3 9.4
2017-Apr-29 02:35 127 0 gusting 3 9.4
2017-Apr-29 02:30 154 1 gusting 4 9.4
2017-Apr-29 02:25 160 2 gusting 5 9.4
2017-Apr-29 02:20 143 1 gusting 5 9.4
2017-Apr-29 02:15 137 2 gusting 6 9.4
2017-Apr-29 02:10 136 3 gusting 6 10.0
2017-Apr-29 02:05 143 4 gusting 6 10.0
2017-Apr-29 02:00 160 4 gusting 8 10.0
2017-Apr-29 01:55 165 2 gusting 8 10.0
2017-Apr-29 01:50 167 3 gusting 10 10.0
2017-Apr-29 01:45 162 5 gusting 13 10.0
2017-Apr-29 01:40 169 5 gusting 13 10.0
2017-Apr-29 01:35 163 3 gusting 9 10.6
2017-Apr-29 01:30 150 4 gusting 10 10.6
2017-Apr-29 01:25 154 5 gusting 12 10.6
2017-Apr-29 01:20 150 5 gusting 12 10.6
2017-Apr-29 01:15 151 2 gusting 6 10.6
2017-Apr-29 01:10 152 1 gusting 5 10.6
2017-Apr-29 01:05 156 3 gusting 7 10.6
2017-Apr-29 01:00 151 2 gusting 7 10.6
2017-Apr-29 00:55 152 3 gusting 6 10.6
2017-Apr-29 00:50 159 3 gusting 7 10.6
2017-Apr-29 00:45 151 4 gusting 8 10.6
2017-Apr-29 00:40 142 3 gusting 8 10.6
2017-Apr-29 00:35 143 6 gusting 11 10.6
2017-Apr-29 00:30 149 6 gusting 11 10.6
2017-Apr-29 00:25 147 3 gusting 7 10.6
2017-Apr-29 00:20 141 4 gusting 7 10.6
2017-Apr-29 00:15 148 3 gusting 6 10.6
2017-Apr-29 00:10 169 4 gusting 6 10.6
2017-Apr-29 00:05 161 3 gusting 6 10.6
2017-Apr-29 00:00 138 3 gusting 6 10.6
2017-Apr-28 23:55 141 3 gusting 7 10.6
2017-Apr-28 23:50 126 4 gusting 9 10.6
2017-Apr-28 23:45 131 1 gusting 9 10.6
2017-Apr-28 23:40 141 3 gusting 9 10.6
2017-Apr-28 23:35 130 3 gusting 9 10.6
2017-Apr-28 23:30 125 3 gusting 8 10.6
2017-Apr-28 23:25 126 6 gusting 7 10.6
2017-Apr-28 23:20 140 3 gusting 7 10.6
2017-Apr-28 23:15 149 3 gusting 6 10.6
2017-Apr-28 23:10 143 2 gusting 6 10.6
2017-Apr-28 23:05 132 3 gusting 6 10.6
2017-Apr-28 23:00 131 3 gusting 7 10.6
2017-Apr-28 22:55 139 6 gusting 10 10.6
2017-Apr-28 22:50 140 3 gusting 10 10.6
2017-Apr-28 22:45 140 4 gusting 10 11.1
2017-Apr-28 22:40 145 1 gusting 4 11.1
2017-Apr-28 22:35 152 2 gusting 4 11.1
2017-Apr-28 22:30 158 1 gusting 6 11.1
2017-Apr-28 22:25 163 1 gusting 6 11.1
2017-Apr-28 22:20 157 3 gusting 7 11.1
2017-Apr-28 22:15 151 3 gusting 7 11.1
2017-Apr-28 22:10 168 2 gusting 4 11.1
2017-Apr-28 22:05 137 1 gusting 4 11.1
2017-Apr-28 22:00 111 1 gusting 6 11.1
2017-Apr-28 21:55 158 3 gusting 8 11.1
2017-Apr-28 21:50 173 3 gusting 8 11.1
2017-Apr-28 21:45 153 6 gusting 11 11.1
2017-Apr-28 21:40 139 1 gusting 11 11.1
2017-Apr-28 21:35 131 5 gusting 9 11.1
2017-Apr-28 21:30 153 2 gusting 3 11.1
2017-Apr-28 21:25 144 2 gusting 3 11.1
2017-Apr-28 21:20 150 1 gusting 6 11.1
2017-Apr-28 21:15 159 1 gusting 6 11.1
2017-Apr-28 21:10 173 1 gusting 6 11.1
2017-Apr-28 21:05 160 2 gusting 8 11.1
2017-Apr-28 21:00 153 4 gusting 8 11.1
2017-Apr-28 20:55 164 5 gusting 9 11.7
2017-Apr-28 20:50 162 3 gusting 9 11.7
2017-Apr-28 20:45 170 6 gusting 9 11.7
2017-Apr-28 20:40 160 4 gusting 6 11.7
2017-Apr-28 20:35 145 3 gusting 6 11.7
2017-Apr-28 20:30 133 2 gusting 6 11.7
2017-Apr-28 20:25 166 1 gusting 6 11.7
2017-Apr-28 20:20 190 5 gusting 8 11.7
2017-Apr-28 20:15 175 3 gusting 9 11.7
2017-Apr-28 20:10 147 5 gusting 9 11.7
2017-Apr-28 20:05 157 1 gusting 9 11.7
2017-Apr-28 20:00 174 2 gusting 8 11.7
2017-Apr-28 19:55 147 2 gusting 8 11.7
2017-Apr-28 19:50 162 5 gusting 9 11.7
2017-Apr-28 19:45 198 5 gusting 9 11.7
2017-Apr-28 19:40 181 7 gusting 10 11.7
2017-Apr-28 19:35 173 2 gusting 12 11.7
2017-Apr-28 19:30 185 4 gusting 13 11.7
2017-Apr-28 19:25 176 6 gusting 13 11.7
2017-Apr-28 19:20 173 2 gusting 12 11.7
2017-Apr-28 19:15 207 6 gusting 9 12.2
2017-Apr-28 19:10 212 3 gusting 8 12.2
2017-Apr-28 19:05 209 2 gusting 12 12.2
2017-Apr-28 19:00 211 3 gusting 12 12.2
2017-Apr-28 18:55 184 3 gusting 13 12.8
2017-Apr-28 18:50 169 6 gusting 13 12.8
2017-Apr-28 18:45 154 5 gusting 9 12.8
2017-Apr-28 18:40 173 4 gusting 12 12.8
2017-Apr-28 18:35 201 3 gusting 14 12.8
2017-Apr-28 18:30 192 4 gusting 14 12.8
2017-Apr-28 18:25 198 8 gusting 15 12.8
2017-Apr-28 18:20 197 5 gusting 18 13.3
2017-Apr-28 18:15 185 9 gusting 18 13.3
2017-Apr-28 18:10 164 5 gusting 13 13.9
2017-Apr-28 18:05 178 6 gusting 14 13.9
2017-Apr-28 18:00 208 6 gusting 14 13.9
2017-Apr-28 17:55 176 8 gusting 13 14.4
2017-Apr-28 17:50 147 3 gusting 13 14.4
2017-Apr-28 17:45 201 4 gusting 14 14.4
2017-Apr-28 17:40 232 6 gusting 14 14.4
2017-Apr-28 17:35 221 4 gusting 14 15.0
2017-Apr-28 17:30 192 6 gusting 14 15.6
2017-Apr-28 17:25 188 6 gusting 14 15.6
2017-Apr-28 17:20 174 9 gusting 17 15.6
2017-Apr-28 17:15 171 4 gusting 17 16.1
2017-Apr-28 17:10 167 9 gusting 17 16.7
2017-Apr-28 17:05 176 6 gusting 12 17.2
2017-Apr-28 17:00 182 5 gusting 14 17.2
2017-Apr-28 16:55 181 6 gusting 14 16.7
2017-Apr-28 16:50 187 9 gusting 14 16.7
2017-Apr-28 16:45 194 4 gusting 13 16.7
2017-Apr-28 16:40 175 7 gusting 13 17.2
2017-Apr-28 16:35 179 6 gusting 11 17.8
2017-Apr-28 16:30 209 4 gusting 11 17.8
2017-Apr-28 16:25 206 3 gusting 10 17.8
2017-Apr-28 16:20 209 5 gusting 10 17.8
2017-Apr-28 16:15 190 7 gusting 11 18.3
2017-Apr-28 16:10 183 3 gusting 13 17.8
2017-Apr-28 16:05 188 7 gusting 13 17.8
2017-Apr-28 16:00 217 10 gusting 13 17.8
2017-Apr-28 15:55 224 2 gusting 10 18.3
2017-Apr-28 15:50 197 3 gusting 14 18.3
2017-Apr-28 15:45 201 4 gusting 14 18.3
2017-Apr-28 15:40 199 9 gusting 13 18.9
2017-Apr-28 15:35 212 3 gusting 12 18.3
2017-Apr-28 15:30 240 6 gusting 13 17.8
2017-Apr-28 15:25 223 4 gusting 13 18.3
2017-Apr-28 15:20 178 11 gusting 13 19.4
2017-Apr-28 15:15 197 5 gusting 6 19.4
2017-Apr-28 15:10 337 0 gusting 5 18.3
2017-Apr-28 15:05 083 2 gusting 9 18.3
2017-Apr-28 15:00 158 1 gusting 9 19.4
2017-Apr-28 14:55 161 6 gusting 9 19.4
2017-Apr-28 14:50 133 4 gusting 9 18.9
2017-Apr-28 14:45 176 3 gusting 9 18.3
2017-Apr-28 14:40 253 1 gusting 10 17.8
2017-Apr-28 14:35 287 4 gusting 10 17.2
2017-Apr-28 14:30 091 3 gusting 6 16.7
2017-Apr-28 14:25 061 3 gusting 10 16.1
2017-Apr-28 14:20 046 3 gusting 13 16.1
2017-Apr-28 14:15 052 6 gusting 13 16.7
2017-Apr-28 14:10 067 7 gusting 14 16.1
2017-Apr-28 14:05 066 2 gusting 14 15.6
2017-Apr-28 14:00 070 10 gusting 14 15.6
2017-Apr-28 13:55 099 9 gusting 15 16.1
2017-Apr-28 13:50 108 10 gusting 15 16.7
2017-Apr-28 13:45 107 9 gusting 12 16.7
2017-Apr-28 13:40 090 1 gusting 11 16.1
2017-Apr-28 13:35 067 3 gusting 12 15.6
2017-Apr-28 13:30 061 9 gusting 12 15.6
2017-Apr-28 13:25 078 5 gusting 13 15.0
2017-Apr-28 13:20 075 9 gusting 13 15.0
2017-Apr-28 13:15 049 9 gusting 13 15.0
2017-Apr-28 13:10 056 6 gusting 12 14.4
2017-Apr-28 13:05 071 1 gusting 12 14.4
2017-Apr-28 13:00 092 10 gusting 12 15.6
2017-Apr-28 12:55 091 3 gusting 14 15.6
2017-Apr-28 12:50 068 0 gusting 14 14.4
2017-Apr-28 12:45 064 12 gusting 14 14.4
2017-Apr-28 12:40 056 6 gusting 13 14.4
2017-Apr-28 12:35 070 3 gusting 8 14.4
2017-Apr-28 12:30 096 1 gusting 6 14.4
2017-Apr-28 12:25 085 4 gusting 10 14.4
2017-Apr-28 12:20 092 3 gusting 10 13.9
2017-Apr-28 12:15 108 7 gusting 9 15.0
2017-Apr-28 12:10 086 1 gusting 10 14.4
2017-Apr-28 12:05 077 6 gusting 10 13.3
2017-Apr-28 12:00 074 3 gusting 14 13.3
2017-Apr-28 11:55 054 3 gusting 14 12.2
2017-Apr-28 11:50 042 9 gusting 15 12.2
2017-Apr-28 11:45 055 10 gusting 15 12.2
2017-Apr-28 11:40 067 6 gusting 10 12.8
2017-Apr-28 11:35 055 5 gusting 11 12.2
2017-Apr-28 11:30 056 0 gusting 12 12.2
2017-Apr-28 11:25 058 9 gusting 13 11.7
2017-Apr-28 11:20 064 6 gusting 13 11.7
2017-Apr-28 11:15 075 10 gusting 13 11.7
2017-Apr-28 11:10 058 6 gusting 14 11.7
2017-Apr-28 11:05 036 7 gusting 14 11.7
2017-Apr-28 11:00 089 2 gusting 11 11.7
2017-Apr-28 10:55 125 8 gusting 11 11.7
2017-Apr-28 10:50 113 6 gusting 13 11.7
2017-Apr-28 10:45 088 6 gusting 13 11.1
2017-Apr-28 10:40 051 8 gusting 13 11.1
2017-Apr-28 10:35 050 9 gusting 13 10.6
2017-Apr-28 10:30 053 7 gusting 13 10.6
2017-Apr-28 10:25 043 11 gusting 13 10.6
2017-Apr-28 10:20 056 6 gusting 13 10.6
2017-Apr-28 10:15 058 10 gusting 14 10.6
2017-Apr-28 10:10 042 6 gusting 14 10.6
2017-Apr-28 10:05 048 11 gusting 13 10.0
2017-Apr-28 10:00 077 6 gusting 13 10.0
2017-Apr-28 09:55 064 6 gusting 13 10.0
2017-Apr-28 09:50 063 10 gusting 14 9.4
2017-Apr-28 09:45 078 7 gusting 14 9.4
2017-Apr-28 09:40 062 9 gusting 13 9.4
2017-Apr-28 09:35 056 6 gusting 13 9.4
2017-Apr-28 09:30 085 5 gusting 13 8.9
2017-Apr-28 09:25 067 3 gusting 13 8.3
2017-Apr-28 09:20 043 12 gusting 13 8.3
2017-Apr-28 09:15 063 9 gusting 14 8.3
2017-Apr-28 09:10 078 9 gusting 14 7.8
2017-Apr-28 09:05 084 13 gusting 14 8.3
2017-Apr-28 09:00 066 6 gusting 13 7.8
2017-Apr-28 08:55 070 11 gusting 13 7.8
2017-Apr-28 08:50 084 8 gusting 14 7.2
2017-Apr-28 08:45 087 9 gusting 16 7.2
2017-Apr-28 08:40 090 13 gusting 16 7.2
2017-Apr-28 08:35 078 12 gusting 14 6.7
2017-Apr-28 08:30 066 9 gusting 15 6.1
2017-Apr-28 08:25 057 12 gusting 15 6.7
2017-Apr-28 08:20 049 9 gusting 18 6.1
2017-Apr-28 08:15 055 13 gusting 18 5.6
2017-Apr-28 08:10 068 12 gusting 17 6.1
2017-Apr-28 08:05 064 9 gusting 18 6.1
2017-Apr-28 08:00 074 12 gusting 18 5.6
2017-Apr-28 07:55 067 10 gusting 15 5.6
2017-Apr-28 07:50 058 8 gusting 15 5.6
2017-Apr-28 07:45 089 12 gusting 17 5.0
2017-Apr-28 07:40 077 10 gusting 19 5.0
2017-Apr-28 07:35 060 14 gusting 19 5.0
2017-Apr-28 07:30 061 12 gusting 19 5.0
2017-Apr-28 07:25 060 13 gusting 20 5.0
2017-Apr-28 07:20 056 11 gusting 20 4.4
2017-Apr-28 07:15 060 13 gusting 18 4.4
2017-Apr-28 07:10 069 12 gusting 18 4.4
2017-Apr-28 07:05 073 9 gusting 18 3.9
2017-Apr-28 07:00 072 14 gusting 20 3.9
2017-Apr-28 06:55 064 9 gusting 20 3.9
2017-Apr-28 06:50 061 12 gusting 19 3.9
2017-Apr-28 06:45 063 11 gusting 16 3.9
2017-Apr-28 06:40 056 12 gusting 17 3.9
2017-Apr-28 06:35 056 11 gusting 19 3.3
2017-Apr-28 06:30 062 9 gusting 19 3.3
2017-Apr-28 06:25 052 14 gusting 19 3.3
2017-Apr-28 06:20 055 8 gusting 18 3.3
2017-Apr-28 06:15 065 11 gusting 19 3.3
2017-Apr-28 06:10 057 10 gusting 19 3.3
2017-Apr-28 06:05 059 12 gusting 19 3.3
2017-Apr-28 06:00 062 12 gusting 22 3.3
2017-Apr-28 05:55 061 8 gusting 22 3.3
2017-Apr-28 05:50 057 11 gusting 21 3.3
2017-Apr-28 05:45 053 16 gusting 19 3.3
2017-Apr-28 05:40 055 10 gusting 23 3.3
2017-Apr-28 05:35 062 13 gusting 23 3.3
2017-Apr-28 05:30 063 13 gusting 21 3.3
2017-Apr-28 05:25 067 16 gusting 21 3.3
2017-Apr-28 05:20 073 14 gusting 18 3.3
2017-Apr-28 05:15 057 12 gusting 20 3.3
2017-Apr-28 05:10 049 14 gusting 20 3.3
2017-Apr-28 05:05 053 13 gusting 18 3.3
2017-Apr-28 05:00 060 10 gusting 18 3.3
2017-Apr-28 04:55 063 12 gusting 18 3.9
2017-Apr-28 04:50 076 12 gusting 17 3.9
2017-Apr-28 04:45 067 6 gusting 17 3.9
2017-Apr-28 04:40 061 12 gusting 17 3.9
2017-Apr-28 04:35 061 13 gusting 17 3.9
2017-Apr-28 04:30 051 13 gusting 17 3.9
2017-Apr-28 04:25 050 10 gusting 16 3.9
2017-Apr-28 04:20 054 13 gusting 17 3.9
2017-Apr-28 04:15 051 13 gusting 17 3.9
2017-Apr-28 04:10 047 13 gusting 14 3.9
2017-Apr-28 04:05 044 11 gusting 15 3.9
2017-Apr-28 04:00 044 11 gusting 18 3.9
2017-Apr-28 03:55 057 10 gusting 18 3.9
2017-Apr-28 03:50 059 7 gusting 14 3.9
2017-Apr-28 03:45 056 6 gusting 14 3.9
2017-Apr-28 03:40 063 7 gusting 14 3.9
2017-Apr-28 03:35 057 11 gusting 16 3.9
2017-Apr-28 03:30 055 8 gusting 16 3.9
2017-Apr-28 03:25 051 13 gusting 21 3.9
2017-Apr-28 03:20 059 6 gusting 21 4.4
2017-Apr-28 03:15 054 9 gusting 15 4.4
2017-Apr-28 03:10 054 11 gusting 15 4.4
2017-Apr-28 03:05 071 7 gusting 16 4.4
2017-Apr-28 03:00 065 9 gusting 16 4.4
2017-Apr-28 02:55 056 11 gusting 14 4.4
2017-Apr-28 02:50 054 6 gusting 18 4.4
2017-Apr-28 02:45 062 9 gusting 19 4.4
2017-Apr-28 02:40 069 13 gusting 19 4.4
2017-Apr-28 02:35 072 11 gusting 18 4.4
2017-Apr-28 02:30 079 13 gusting 18 4.4
2017-Apr-28 02:25 067 8 gusting 16 4.4
2017-Apr-28 02:20 071 9 gusting 16 4.4
2017-Apr-28 02:15 071 13 gusting 16 5.0
2017-Apr-28 02:10 049 11 gusting 14 5.0
2017-Apr-28 02:05 053 9 gusting 13 5.0
2017-Apr-28 02:00 064 9 gusting 13 5.0
2017-Apr-28 01:55 061 9 gusting 16 5.0
2017-Apr-28 01:50 068 9 gusting 16 5.0
2017-Apr-28 01:45 074 9 gusting 19 5.0
2017-Apr-28 01:40 068 8 gusting 19 5.0
2017-Apr-28 01:35 070 6 gusting 18 5.0
2017-Apr-28 01:30 083 9 gusting 18 5.0
2017-Apr-28 01:25 089 11 gusting 21 5.6
2017-Apr-28 01:20 068 9 gusting 21 5.6
2017-Apr-28 01:15 059 13 gusting 18 5.6
2017-Apr-28 01:10 065 13 gusting 17 5.6
2017-Apr-28 01:05 070 14 gusting 18 5.6
2017-Apr-28 01:00 073 13 gusting 18 5.6
2017-Apr-28 00:55 073 6 gusting 14 5.6
2017-Apr-28 00:50 054 6 gusting 16 6.1
2017-Apr-28 00:45 051 9 gusting 16 6.1
2017-Apr-28 00:40 065 8 gusting 14 6.1
2017-Apr-28 00:35 057 8 gusting 14 6.1
2017-Apr-28 00:30 055 13 gusting 14 6.1
2017-Apr-28 00:25 054 10 gusting 15 6.1
2017-Apr-28 00:20 049 7 gusting 18 6.1
2017-Apr-28 00:15 056 7 gusting 18 6.7
2017-Apr-28 00:10 068 14 gusting 18 6.7
2017-Apr-28 00:05 068 6 gusting 17 6.7
2017-Apr-28 00:00 072 6 gusting 17 6.7
2017-Apr-27 23:55 072 12 gusting 19 6.7
2017-Apr-27 23:50 075 6 gusting 22 6.7
2017-Apr-27 23:45 081 8 gusting 22 6.7
2017-Apr-27 23:40 088 9 gusting 21 7.2
2017-Apr-27 23:35 082 9 gusting 19 7.2
2017-Apr-27 23:30 070 16 gusting 19 7.2
2017-Apr-27 23:25 054 9 gusting 20 7.2
2017-Apr-27 23:20 051 10 gusting 20 7.2
2017-Apr-27 23:15 062 6 gusting 19 7.8
2017-Apr-27 23:10 066 8 gusting 19 7.8
2017-Apr-27 23:05 076 17 gusting 19 7.8
2017-Apr-27 23:00 078 7 gusting 21 7.8